Flag for U.S.A. Weather past 2 weeks in Sunnyvale, California, U.S.A.

Now
55 °F

Overcast.


Feels Like: 55 °F
Forecast: 56 / 67 °F
Wind: No wind

Location: Moffett Field

Current Time: May 22, 2015 at 4:33:04 AM

Latest Report: May 22, 2015 at 3:56 AM


Visibility: 10 mi

Pressure: 30.00 "Hg

Humidity: 83%

Dew point: 50 °F

Location of SunnyvaleLocation

Historic Weather in Sunnyvale — Graph

°F

Sunnyvale temperature yesterday

Maximum temperature yesterday: 67 °F (at 2:56 PM)
Minimum temperature yesterday: 56 °F (at 2:56 AM)
Average temperature yesterday: 60 °F

Past Weeks' High & Low Weather Summary

 TemperatureHumidityPressure
High69 °F (May 8, 1:56 PM)93% (May 15, 5:56 AM)30.14 "Hg (May 15, 5:56 AM)
Low48 °F (May 12, 4:56 AM)35% (May 12, 4:56 PM)29.76 "Hg (May 7, 4:56 PM)
Average58 °F68%29.98 "Hg
* Reported May 7 2:56 AM — May 22 2:56 AM, Sunnyvale, Weather by CustomWeather, © 2015

Note: Actual official high and low records may vary slightly from our data, if they occured in-between our weather recording intervals... More about our weather records

Advertising

Sunnyvale weather history for previous 24 hours

 ConditionsComfort  
Time TempWeatherWind HumidityBarometerVisibility
2:56 AM
Fri, May 22
56 °FPassing clouds.No wind81%30.00 "Hg10 mi
1:56 AM55 °FClear.No wind83%30.00 "Hg10 mi
12:56 AM55 °FClear.No wind83%30.00 "Hg10 mi
11:56 PM
Thu, May 21
57 °FClear.3 mph78%30.00 "Hg10 mi
10:56 PM58 °FPassing clouds.No wind78%30.00 "Hg10 mi
9:56 PM59 °FPassing clouds.6 mph72%29.99 "Hg10 mi
8:56 PM59 °FPassing clouds.7 mph75%29.97 "Hg10 mi
7:56 PM60 °FOvercast.8 mph69%29.96 "Hg10 mi
6:56 PM63 °FMostly cloudy.12 mph60%29.95 "Hg10 mi
5:56 PM64 °FOvercast.14 mph58%29.94 "Hg10 mi
4:56 PM64 °FOvercast.8 mph61%29.94 "Hg10 mi
3:56 PM66 °FMostly cloudy.10 mph54%29.94 "Hg10 mi
2:56 PM67 °FOvercast.9 mph53%29.94 "Hg10 mi
1:56 PM63 °FOvercast.13 mph70%29.95 "Hg10 mi
12:56 PM65 °FOvercast.12 mph66%29.96 "Hg10 mi
11:56 AM64 °FOvercast.6 mph65%29.96 "Hg10 mi
10:56 AM62 °FBroken clouds.7 mph67%29.96 "Hg10 mi
9:56 AM63 °FMostly cloudy.6 mph65%29.96 "Hg10 mi
8:56 AM60 °FMostly cloudy.No wind67%29.96 "Hg10 mi
7:56 AM59 °FMore clouds than sun.No wind67%29.97 "Hg10 mi
6:56 AM57 °FOvercast.3 mph72%29.96 "Hg10 mi
5:56 AM57 °FOvercast.5 mph74%29.95 "Hg10 mi
4:56 AM56 °FOvercast.5 mph75%29.95 "Hg10 mi
Weather by CustomWeather, © 2015

See weather overviewHow to use our weather pages